Location: Red Deer
(52.2681°N, 113.8112°W)
Time: 00:39:33
(UTC-06:00)

Envisat - Visible Passes

Search period start: 24 September 2023 00:00
Search period end: 04 October 2023 00:00
Orbit: 763 x 764 km, 98.2° (Epoch: 23 September)

Date Brightness Start Highest point End Pass type
(mag) Time Alt. Az. Time Alt. Az. Time Alt. Az.
24 Sep 5.4 04:06:57 10° NE 04:10:30 19° E 04:14:01 10° SE visible
24 Sep 2.9 05:44:58 10° NNE 05:50:04 76° WNW 05:55:08 10° SSW visible
25 Sep 3.6 05:07:48 10° NNE 05:12:49 56° E 05:17:47 10° S visible
25 Sep 4.0 06:47:17 10° N 06:51:32 27° WNW 06:55:45 10° WSW visible
26 Sep 4.7 04:30:58 10° NNE 04:35:22 29° E 04:39:45 10° SSE visible
26 Sep 3.2 06:09:42 10° N 06:14:36 49° WNW 06:19:28 10° SW visible
27 Sep 5.6 03:54:50 10° NE 03:57:43 15° E 04:00:34 10° ESE visible
27 Sep 3.0 05:32:21 10° NNE 05:37:28 87° ESE 05:42:27 11° SSW visible
28 Sep 4.0 04:55:16 10° NNE 05:00:09 45° E 05:04:41 12° S visible
28 Sep 3.8 06:34:31 10° N 06:39:02 33° WNW 06:43:31 10° SW visible
29 Sep 5.1 04:18:35 10° NE 04:22:39 23° E 04:26:40 10° SE visible
29 Sep 3.0 05:57:01 10° N 06:02:02 61° WNW 06:07:01 10° SSW visible
30 Sep 5.8 03:43:05 10° ENE 03:44:54 12° E 03:46:43 10° ESE visible
30 Sep 3.2 05:19:45 10° NNE 05:24:51 71° ESE 05:29:20 13° S visible
30 Sep 4.2 06:59:29 10° N 07:03:23 23° WNW 07:07:16 10° WSW visible
01 Oct 4.4 04:42:46 10° NNE 04:47:28 36° E 04:51:34 13° SSE visible
01 Oct 3.5 06:21:47 10° N 06:26:31 40° WNW 06:31:12 10° SW visible
02 Oct 5.4 04:06:19 10° NE 04:09:53 19° E 04:13:25 10° SE visible
02 Oct 2.9 05:44:22 10° NNE 05:49:27 76° WNW 05:53:58 13° SSW visible
03 Oct 3.5 05:07:10 10° NNE 05:12:12 56° E 05:16:12 16° S visible
03 Oct 4.0 06:46:40 10° N 06:50:54 27° WNW 06:55:07 10° WSW visible
